Regional Weather Roundup
Issued by NWS

Home | Current Version | Previous Version | Text Only | Print | Product List | Glossary Off
Versions: 1 2 3 4 5 6 7 8 9 10 11 12 13 14 15 16 17 18 19 20 21 22 23 24 25 26 27 28 29 30 31 32 33 34 35 36 37 38 39 40 41 42 43 44 45 46 47 48 49 50

000
ASUS43 KLMK 300002
RWRKY
KENTUCKY REGIONAL WEATHER ROUNDUP
NATIONAL WEATHER SERVICE LOUISVILLE KY
800 PM EDT SAT APR 29 2017

NOTE "FAIR" INDICATES FEW OR NO CLOUDS BELOW 12,000 FEET
WITH NO SIGNIFICANT WEATHER AND/OR OBSTRUCTIONS TO VISIBILITY.

KYZ001>023-026-027-061>063-070>075-300100-
WESTERN AND SOUTH CENTRAL KENTUCKY

CITY           SKY/WX    TMP DP  RH WIND       PRES   REMARKS
PADUCAH        PTCLDY    83  65  54 S13       29.83R
HENDERSON        N/A    N/A N/A N/A MISG        N/A
OWENSBORO      CLOUDY    82  68  62 S10       29.86R
HOPKINSVILLE   CLEAR     83  66  54 S9        29.89S
BOWLING GREEN  CLEAR     85  65  51 S10       29.92R
GLASGOW        NOT AVBL
$$

KYZ024-025-028>034-038-045-046-053-300100-
NORTH CENTRAL KENTUCKY

CITY           SKY/WX    TMP DP  RH WIND       PRES   REMARKS
LOUISVILLE/SDF CLOUDY    84  66  54 SE15      29.88F
LOUISVILLE/LOU CLOUDY    84  67  56 SE7       29.89F
FORT KNOX      PTCLDY    82  68  60 SE9       29.88F
$$

KYZ035>037-039>044-047>052-055>060-089>105-300100-
NORTHEAST KENTUCKY

CITY           SKY/WX    TMP DP  RH WIND       PRES   REMARKS
LEXINGTON      CLOUDY    80  64  58 SE10      29.98R
COVINGTON      MOCLDY    77  66  68 E9        29.94F
FRANKFORT      CLOUDY    77  68  73 SE9       29.94S
$$

KYZ054-064>069-076>088-106>120-300100-
SOUTHEAST KENTUCKY

CITY           SKY/WX    TMP DP  RH WIND       PRES   REMARKS
JACKSON        PTCLDY    83  61  47 CALM      30.03R
LONDON         CLEAR     83  61  47 S6        30.01S
SOMERSET       NOT AVBL
MIDDLESBORO    CLEAR     85  61  44 CALM      30.02R
MONTICELLO     PTCLDY    82  64  54 VRB7      29.99S
$$





USA.gov is the U.S. government's official web portal to all federal, state and local government web resources and services.